period_start,C,m1,H,J0,J1,J2,J3,J4,J5,JA,JB,JC,JD,JJ,JK,JN,#
2017-05-01 00:01:01,0.02,0.36,0.00,23.48,26.75,30.25,14.27,48.13,1008.87,2032.89,3343.99,3003.00,3437.18,599.74,590.33,11.38,0000 0000 0000 0000 000000
2017-05-01 00:06:02,0.02,0.36,0.00,23.64,26.76,30.24,14.34,48.33,1008.90,2032.91,3343.30,3002.80,3436.99,599.72,589.94,11.44,0000 0000 0000 0000 000000
2017-05-01 00:11:03,0.01,0.36,0.00,23.80,26.77,30.27,14.32,48.25,1008.81,2032.67,3342.82,3002.08,3436.36,599.91,589.81,11.49,0000 0000 0000 0000 000000
2017-05-01 00:16:04,-0.00,0.36,0.00,23.88,26.80,30.32,14.36,48.30,1008.80,2032.47,3342.06,3001.95,3436.00,600.23,589.97,11.54,0000 0000 0000 0000 000000
2017-05-01 00:21:05,0.04,0.37,0.00,24.00,26.81,30.37,14.33,48.21,1008.82,2032.52,3341.74,3001.21,3435.45,600.24,589.69,11.59,0000 0000 0000 0000 000000
2017-05-01 00:26:07,0.01,0.37,0.00,24.06,26.82,30.38,14.22,48.15,1008.81,2032.55,3341.02,3001.00,3435.01,599.83,589.21,11.64,0000 0000 0000 0000 000000
2017-05-01 00:31:08,0.02,0.37,0.00,24.06,26.82,30.40,14.37,48.23,1008.80,2032.30,3340.34,3000.61,3434.56,600.04,589.20,11.69,0000 0000 0000 0000 000000
2017-05-01 00:36:09,0.01,0.37,0.00,24.03,26.84,30.39,14.40,48.34,1008.81,2032.11,3339.78,3000.02,3434.00,599.99,589.56,11.74,0000 0000 0000 0000 000000
2017-05-01 00:41:10,0.03,0.37,0.00,24.11,26.85,30.40,14.36,48.17,1008.80,2032.07,3339.02,2999.77,3433.37,599.93,589.16,11.79,0000 0000 0000 0000 000000
2017-05-01 00:46:12,0.03,0.37,0.00,24.16,26.85,30.38,14.38,48.17,1008.76,2032.12,3338.33,2999.08,3433.00,600.11,589.12,11.84,0000 0000 0000 0000 000000
2017-05-01 00:51:13,0.03,0.37,0.00,24.17,26.85,30.37,14.27,48.25,1008.79,2032.23,3337.81,2998.89,3432.42,600.12,589.26,11.89,0000 0000 0000 0000 000000
2017-05-01 00:56:14,0.03,0.37,0.00,24.15,26.85,30.38,14.26,48.21,1008.73,2032.14,3337.04,2998.15,3431.99,599.75,588.95,11.94,0000 0000 0000 0000 000000
2017-05-01 01:01:16,0.03,0.38,0.00,24.11,26.85,30.36,14.37,48.28,1008.66,2032.18,3336.44,2997.99,3431.40,600.31,589.44,11.99,0000 0000 0000 0000 000000
2017-05-01 01:06:17,0.02,0.38,0.00,24.16,26.85,30.33,14.32,48.18,1008.74,2032.23,3335.88,2997.47,3431.00,600.22,589.32,12.04,0000 0000 0000 0000 000000
2017-05-01 01:11:19,0.04,0.38,0.00,24.20,26.85,30.33,14.34,48.18,1008.72,2032.23,3335.10,2997.01,3430.39,600.16,589.02,12.09,0000 0000 0000 0000 000000
2017-05-01 01:16:20,0.01,0.38,0.00,24.20,26.84,30.34,14.31,48.17,1008.40,2032.17,3334.58,2996.88,3430.00,600.07,588.93,12.14,0000 0000 0000 0000 000000
2017-05-01 01:21:21,0.03,0.38,0.00,24.20,26.83,30.36,14.32,48.32,1008.34,2032.22,3334.01,2996.15,3429.72,599.89,588.76,12.19,0000 0000 0000 0000 000000
2017-05-01 01:26:22,0.02,0.38,0.00,24.21,26.82,30.33,14.15,48.12,1008.32,2032.28,3333.38,2996.00,3429.05,599.47,588.22,12.24,0000 0000 0000 0000 000000
2017-05-01 01:31:23,0.02,0.38,0.00,24.21,26.82,30.33,14.39,48.18,1008.32,2032.20,3332.83,2995.61,3428.77,600.30,589.10,12.29,0000 0000 0000 0000 000000
2017-05-01 01:36:25,0.04,0.39,0.00,24.24,26.82,30.34,14.24,48.18,1008.32,2032.18,3332.05,2995.02,3428.05,599.85,588.55,12.34,0000 0000 0000 0000 000000
2017-05-01 01:41:26,0.02,0.39,0.00,24.22,26.82,30.31,14.28,48.32,1008.32,2032.26,3331.53,2994.88,3427.86,599.69,588.50,12.39,0000 0000 0000 0000 000000
2017-05-01 01:46:27,0.03,0.39,0.00,23.95,26.82,30.28,14.30,48.28,1008.34,2032.27,3330.97,2994.25,3427.18,600.10,589.34,12.44,0000 0000 0000 0000 000000
2017-05-01 01:51:29,0.01,0.39,0.00,23.67,26.80,30.26,14.35,48.24,1008.49,2032.21,3330.20,2993.99,3426.94,600.31,590.06,12.49,0000 0000 0000 0000 000000
2017-05-01 01:56:30,0.06,0.39,0.00,23.65,26.80,30.31,14.43,48.45,1008.33,2032.36,3329.72,2993.68,3426.20,600.11,590.00,12.54,0000 0000 0000 0000 000000
2017-05-01 02:01:31,0.02,0.39,0.00,23.88,26.80,30.18,14.38,48.41,1008.32,2032.48,3329.03,2993.03,3425.98,600.21,589.58,12.59,0000 0000 0000 0000 000000
2017-05-01 02:06:32,0.03,0.40,0.00,23.70,26.80,30.15,14.34,48.46,1008.32,2032.54,3328.39,2992.89,3425.35,600.19,589.95,12.64,0000 0000 0000 0000 000000
2017-05-01 02:11:34,0.00,0.40,0.00,24.04,26.80,30.21,14.31,48.21,1008.33,2032.21,3327.69,2992.08,3424.88,600.16,589.23,12.69,0000 0000 0000 0000 000000
2017-05-01 02:16:35,0.01,0.40,0.00,24.12,26.80,30.23,14.30,48.23,1008.37,2032.12,3327.02,2991.97,3424.09,599.98,589.01,12.74,0000 0000 0000 0000 000000
2017-05-01 02:21:36,0.04,0.40,0.00,24.13,26.82,30.28,14.26,48.27,1008.36,2032.08,3326.35,2991.21,3423.86,599.76,588.63,12.79,0000 0000 0000 0000 000000
2017-05-01 02:26:38,0.03,0.40,0.00,24.17,26.82,30.29,14.29,48.13,1008.37,2032.11,3325.75,2990.97,3423.07,600.15,589.08,12.84,0000 0000 0000 0000 000000
2017-05-01 02:31:39,0.04,0.40,0.00,24.21,26.82,30.29,14.29,48.23,1008.38,2032.10,3325.02,2990.19,3422.56,600.07,588.78,12.89,0000 0000 0000 0000 000000
2017-05-01 02:36:40,0.02,0.40,0.00,24.26,26.83,30.28,14.34,48.23,1008.44,2032.08,3324.18,2989.98,3422.01,599.83,588.57,12.94,0000 0000 0000 0000 000000
2017-05-01 02:41:42,0.05,0.40,0.00,24.23,26.84,30.28,14.29,48.13,1008.56,2032.08,3323.52,2989.29,3421.41,599.92,588.69,12.99,0000 0000 0000 0000 000000
2017-05-01 02:46:43,0.01,0.41,0.00,24.26,26.85,30.30,14.35,48.17,1008.52,2032.12,3322.82,2988.98,3421.00,599.99,588.78,13.04,0000 0000 0000 0000 000000
2017-05-01 02:51:44,0.04,0.41,0.00,24.30,26.85,30.28,14.37,48.15,1008.68,2032.09,3322.03,2988.36,3420.27,599.64,588.51,13.09,0000 0000 0000 0000 000000
2017-05-01 02:56:46,0.02,0.41,0.00,24.29,26.85,30.28,14.33,48.15,1008.49,2032.05,3321.22,2988.00,3419.93,600.12,588.94,13.14,0000 0000 0000 0000 000000
2017-05-01 03:01:47,0.04,0.41,0.00,24.29,26.85,30.26,14.28,48.22,1008.45,2032.08,3320.62,2987.56,3419.14,599.70,588.33,13.19,0000 0000 0000 0000 000000
2017-05-01 03:06:48,0.02,0.41,0.00,24.30,26.85,30.27,14.27,48.15,1008.40,2032.14,3319.99,2987.02,3418.92,599.88,588.57,13.24,0000 0000 0000 0000 000000
2017-05-01 03:11:49,0.04,0.42,0.00,24.31,26.84,30.26,14.26,48.23,1008.33,2032.19,3319.22,2986.78,3418.14,599.92,588.47,13.29,0000 0000 0000 0000 000000
2017-05-01 03:16:50,0.03,0.42,0.00,24.36,26.84,30.28,14.27,48.22,1008.34,2032.12,3318.41,2986.04,3417.68,599.84,588.30,13.34,0000 0000 0000 0000 000000
2017-05-01 03:21:52,0.03,0.42,0.00,24.27,26.83,30.26,14.22,48.13,1008.36,2032.09,3317.66,2985.64,3417.02,599.67,588.46,13.39,0000 0000 0000 0000 000000
2017-05-01 03:26:53,0.02,0.42,0.00,24.25,26.83,30.27,14.27,48.09,1008.34,2032.05,3316.92,2985.02,3416.32,599.74,588.48,13.44,0000 0000 0000 0000 000000
2017-05-01 03:31:54,0.03,0.42,0.00,24.29,26.83,30.27,14.31,48.13,1008.34,2032.13,3316.09,2984.73,3415.99,600.07,588.56,13.49,0000 0000 0000 0000 000000
2017-05-01 03:36:55,0.05,0.42,0.00,24.31,26.82,30.26,14.33,48.35,1008.32,2032.17,3315.29,2984.04,3415.26,600.05,588.63,13.54,0000 0000 0000 0000 000000
2017-05-01 03:41:56,0.02,0.43,0.00,24.34,26.82,30.24,14.30,48.16,1008.32,2032.21,3314.69,2983.83,3414.91,599.95,588.45,13.59,0000 0000 0000 0000 000000
2017-05-01 03:46:58,0.03,0.43,0.00,24.36,26.82,30.22,14.32,48.13,1008.32,2032.11,3313.85,2983.05,3414.11,599.96,588.54,13.64,0000 0000 0000 0000 000000
2017-05-01 03:51:59,0.03,0.43,0.00,24.34,26.82,30.23,14.26,48.20,1008.32,2032.12,3313.03,2982.76,3413.67,599.85,588.42,13.69,0000 0000 0000 0000 000000
2017-05-01 03:57:01,0.04,0.43,0.00,24.31,26.82,30.22,14.28,48.21,1008.32,2032.14,3312.15,2982.04,3413.02,599.97,588.53,13.75,0000 0000 0000 0000 000000
2017-05-01 04:02:02,0.03,0.43,0.00,24.33,26.82,30.22,14.32,48.23,1008.33,2032.17,3311.67,2981.86,3412.52,600.05,588.61,13.80,0000 0000 0000 0000 000000
2017-05-01 04:07:03,0.02,0.43,0.00,24.32,26.82,30.22,14.25,48.14,1008.32,2032.16,3310.97,2981.12,3411.99,599.95,588.42,13.85,0000 0000 0000 0000 000000
2017-05-01 04:12:04,0.03,0.44,0.00,24.35,26.82,30.21,14.28,48.17,1008.32,2032.12,3310.14,2980.88,3411.31,600.03,588.44,13.90,0000 0000 0000 0000 000000
2017-05-01 04:17:06,0.04,0.44,0.00,24.35,26.82,30.21,14.22,48.18,1008.38,2032.07,3309.41,2980.10,3410.83,599.94,588.54,13.95,0000 0000 0000 0000 000000
2017-05-01 04:22:07,0.02,0.44,0.00,24.38,26.82,30.20,14.22,48.23,1008.38,2032.05,3308.70,2979.91,3410.08,599.69,588.23,14.00,0000 0000 0000 0000 000000
2017-05-01 04:27:08,0.03,0.44,0.00,24.36,26.83,30.20,14.31,48.33,1008.57,2032.06,3308.00,2979.14,3409.74,600.11,588.62,14.05,0000 0000 0000 0000 000000
2017-05-01 04:32:09,0.02,0.44,0.00,24.36,26.83,30.18,14.26,48.38,1008.58,2032.05,3307.17,2978.94,3409.03,599.87,588.46,14.10,0000 0000 0000 0000 000000
2017-05-01 04:37:10,0.04,0.44,0.00,24.39,26.84,30.20,14.35,48.29,1008.37,2032.05,3306.54,2978.22,3408.55,600.21,588.65,14.15,0000 0000 0000 0000 000000
2017-05-01 04:42:11,0.02,0.45,0.00,24.34,26.84,30.19,14.29,48.24,1008.34,2032.04,3305.70,2977.82,3407.90,600.03,588.61,14.20,0000 0000 0000 0000 000000
2017-05-01 04:47:13,0.04,0.45,0.00,24.35,26.85,30.20,14.33,48.29,1008.33,2032.04,3304.91,2977.05,3407.10,600.18,588.63,14.25,0000 0000 0000 0000 000000
2017-05-01 04:52:14,0.04,0.45,0.00,24.36,26.85,30.18,14.24,48.25,1008.32,2032.03,3304.06,2976.66,3406.59,599.75,588.26,14.30,0000 0000 0000 0000 000000
2017-05-01 04:57:15,0.02,0.45,0.00,24.35,26.85,30.20,14.24,48.34,1008.34,2032.03,3303.27,2976.03,3405.99,599.97,588.46,14.35,0000 0000 0000 0000 000000
2017-05-01 05:02:17,0.04,0.45,0.00,24.36,26.85,30.20,14.25,48.38,1008.50,2032.01,3302.48,2975.71,3405.20,600.00,588.52,14.40,0000 0000 0000 0000 000000
2017-05-01 05:07:18,0.02,0.46,0.00,24.37,26.85,30.19,14.28,48.17,1008.42,2032.02,3301.78,2975.04,3404.83,599.72,588.16,14.45,0000 0000 0000 0000 000000
2017-05-01 05:12:19,0.04,0.46,0.00,24.34,26.86,30.21,14.30,48.27,1008.49,2032.01,3300.98,2974.55,3404.07,599.88,588.50,14.50,0000 0000 0000 0000 000000
2017-05-01 05:17:21,0.03,0.46,0.00,24.33,26.87,30.23,14.20,48.28,1008.69,2032.01,3300.11,2974.01,3403.64,599.68,588.42,14.55,0000 0000 0000 0000 000000
2017-05-01 05:22:22,0.02,0.46,0.00,24.33,26.87,30.23,14.26,48.27,1008.78,2032.01,3299.45,2973.81,3403.02,599.80,588.68,14.60,0000 0000 0000 0000 000000
2017-05-01 05:27:23,0.04,0.46,0.00,24.36,26.87,30.24,14.30,48.22,1008.79,2032.00,3298.69,2973.04,3402.30,600.16,589.01,14.65,0000 0000 0000 0000 000000
2017-05-01 05:32:24,0.02,0.46,0.00,24.37,26.87,30.23,14.34,48.17,1008.80,2032.01,3297.89,2972.71,3401.88,600.49,588.93,14.70,0000 0000 0000 0000 000000
2017-05-01 05:37:26,0.03,0.47,0.00,24.30,26.87,30.24,14.27,48.23,1008.79,2032.00,3297.06,2972.02,3401.08,599.80,588.70,14.75,0000 0000 0000 0000 000000
2017-05-01 05:42:27,0.05,0.47,0.00,24.32,26.87,30.24,14.29,48.17,1008.78,2032.00,3296.24,2971.54,3400.57,599.93,588.73,14.80,0000 0000 0000 0000 000000
2017-05-01 05:47:28,0.02,0.47,0.00,24.32,26.87,30.25,14.27,48.17,1008.72,2032.00,3295.65,2971.02,3400.01,599.85,588.53,14.85,0000 0000 0000 0000 000000
2017-05-01 05:52:29,0.05,0.47,0.00,24.31,26.87,30.25,14.33,48.20,1008.74,2032.01,3294.68,2970.61,3399.41,600.15,588.96,14.90,0000 0000 0000 0000 000000
2017-05-01 05:57:31,0.01,0.47,0.00,24.35,26.87,30.26,14.28,48.06,1008.79,2032.00,3293.98,2970.02,3398.95,600.05,588.74,14.95,0000 0000 0000 0000 000000
2017-05-01 06:02:32,0.04,0.47,0.00,24.34,26.88,30.23,14.27,48.12,1008.80,2032.00,3293.20,2969.71,3398.22,599.88,588.67,15.00,0000 0000 0000 0000 000000
2017-05-01 06:07:33,0.03,0.48,0.00,24.34,26.89,30.25,14.20,48.07,1008.79,2032.00,3292.38,2969.03,3397.72,599.54,588.33,15.05,0000 0000 0000 0000 000000
2017-05-01 06:12:35,0.04,0.48,0.00,24.37,26.90,30.26,14.32,48.12,1008.79,2032.00,3291.55,2968.57,3397.01,600.22,588.97,15.10,0000 0000 0000 0000 000000
2017-05-01 06:17:36,0.02,0.48,0.00,24.32,26.90,30.25,14.30,48.17,1008.61,2032.00,3290.85,2968.02,3396.53,599.80,588.55,15.15,0000 0000 0000 0000 000000
2017-05-01 06:22:37,0.02,0.48,0.00,24.29,26.90,30.23,14.23,48.15,1008.63,2032.00,3290.02,2967.76,3395.95,599.66,588.42,15.20,0000 0000 0000 0000 000000
2017-05-01 06:27:38,0.04,0.48,0.00,24.31,26.90,30.24,14.24,48.23,1008.79,2032.00,3289.13,2967.05,3395.16,599.94,588.72,15.25,0000 0000 0000 0000 000000
2017-05-01 06:32:40,0.04,0.49,0.00,24.27,26.90,30.23,14.30,48.10,1008.80,2032.00,3288.35,2966.62,3394.70,599.96,588.85,15.30,0000 0000 0000 0000 000000
2017-05-01 06:37:41,0.02,0.49,0.00,24.35,26.90,30.27,14.32,48.27,1008.80,2032.00,3287.63,2966.01,3394.01,600.17,588.94,15.35,0000 0000 0000 0000 000000
2017-05-01 06:42:42,0.03,0.49,0.00,24.35,26.90,30.26,14.25,48.05,1008.81,2032.00,3286.91,2965.64,3393.31,599.43,588.23,15.40,0000 0000 0000 0000 000000
2017-05-01 06:47:43,0.02,0.49,0.00,24.35,26.90,30.26,14.26,48.27,1008.81,2032.00,3286.06,2965.02,3392.92,600.03,588.84,15.45,0000 0000 0000 0000 000000
2017-05-01 06:52:45,0.04,0.49,0.00,24.34,26.90,30.24,14.26,48.06,1008.85,2032.00,3285.23,2964.61,3392.16,600.14,588.91,15.50,0000 0000 0000 0000 000000
2017-05-01 06:57:46,0.03,0.49,0.00,24.36,26.91,30.26,14.22,48.13,1008.99,2032.00,3284.46,2964.02,3391.72,599.95,588.84,15.55,0000 0000 0000 0000 000000
2017-05-01 07:02:47,0.03,0.50,0.00,24.32,26.91,30.25,14.32,48.17,1009.01,2032.00,3283.72,2963.72,3391.03,600.07,589.02,15.60,0000 0000 0000 0000 000000
2017-05-01 07:07:48,0.02,0.50,0.00,24.30,26.92,30.26,14.39,48.23,1009.21,2032.00,3282.97,2963.03,3390.77,600.27,589.29,15.65,0000 0000 0000 0000 000000
2017-05-01 07:12:50,0.03,0.50,0.00,24.28,26.92,30.25,14.23,48.11,1009.29,2032.00,3282.12,2962.79,3390.04,599.46,588.73,15.70,0000 0000 0000 0000 000000
2017-05-01 07:17:51,0.04,0.50,0.00,24.32,26.92,30.25,14.21,48.17,1009.27,2032.00,3281.48,2962.06,3389.62,599.78,588.88,15.75,0000 0000 0000 0000 000000
2017-05-01 07:22:52,0.02,0.50,0.00,24.29,26.92,30.23,14.31,48.20,1009.24,2032.00,3280.68,2961.83,3388.96,600.34,589.52,15.80,0000 0000 0000 0000 000000
2017-05-01 07:27:53,0.04,0.51,0.00,24.26,26.92,30.24,14.34,48.22,1009.27,2032.00,3279.86,2961.06,3388.23,600.10,589.29,15.85,0000 0000 0000 0000 000000
2017-05-01 07:32:54,0.04,0.51,0.00,24.33,26.92,30.25,14.33,48.22,1009.29,2032.00,3278.98,2960.69,3387.68,600.15,589.31,15.90,0000 0000 0000 0000 000000
2017-05-01 07:37:56,0.03,0.51,0.00,24.34,26.92,30.25,14.25,48.05,1009.29,2032.00,3278.10,2960.03,3387.01,599.91,588.96,15.95,0000 0000 0000 0000 000000
2017-05-01 07:42:57,0.03,0.51,0.00,24.29,26.92,30.24,14.29,48.17,1009.28,2032.00,3277.26,2959.78,3386.37,599.93,589.10,16.00,0000 0000 0000 0000 000000
2017-05-01 07:47:59,0.04,0.51,0.00,24.28,26.92,30.23,14.27,48.17,1009.23,2032.00,3276.42,2959.04,3385.76,600.10,589.16,16.05,0000 0000 0000 0000 000000
2017-05-01 07:53:00,0.03,0.51,0.00,24.29,26.92,30.22,14.27,48.14,1009.25,2032.00,3275.73,2958.62,3385.04,599.65,588.82,16.11,0000 0000 0000 0000 000000
2017-05-01 07:58:02,0.02,0.52,0.00,24.26,26.92,30.21,14.36,48.23,1009.29,2032.00,3274.97,2958.02,3384.61,600.13,589.27,16.16,0000 0000 0000 0000 000000
2017-05-01 08:03:03,0.03,0.52,0.00,24.26,26.92,30.22,14.28,48.13,1009.29,2032.00,3274.10,2957.71,3384.00,599.84,589.11,16.21,0000 0000 0000 0000 000000
2017-05-01 08:08:05,0.04,0.52,0.00,24.28,26.92,30.22,14.23,48.17,1009.29,2032.00,3273.26,2957.03,3383.27,599.94,589.17,16.26,0000 0000 0000 0000 000000
2017-05-01 08:13:06,0.03,0.52,0.00,24.32,26.92,30.23,14.35,48.15,1009.32,2032.00,3272.52,2956.71,3382.83,600.29,589.34,16.31,0000 0000 0000 0000 000000
2017-05-01 08:18:07,0.03,0.52,0.00,24.27,26.92,30.22,14.27,48.33,1009.33,2032.00,3271.80,2956.03,3382.06,599.82,589.09,16.36,0000 0000 0000 0000 000000
2017-05-01 08:23:09,0.02,0.53,0.00,24.33,26.92,30.22,14.35,48.16,1009.38,2032.00,3270.98,2955.83,3381.68,600.15,589.17,16.41,0000 0000 0000 0000 000000
2017-05-01 08:28:10,0.04,0.53,0.00,24.30,26.92,30.21,14.29,48.24,1009.35,2032.00,3270.13,2955.06,3381.00,599.93,589.12,16.46,0000 0000 0000 0000 000000
2017-05-01 08:33:12,0.04,0.53,0.00,24.23,26.92,30.20,14.28,48.20,1009.45,2032.00,3269.30,2954.74,3380.20,599.96,589.35,16.51,0000 0000 0000 0000 000000
2017-05-01 08:38:13,0.03,0.53,0.00,24.27,26.92,30.20,14.37,48.38,1009.56,2032.00,3268.54,2954.05,3379.78,600.08,589.49,16.56,0000 0000 0000 0000 000000
2017-05-01 08:43:14,0.02,0.53,0.00,24.28,26.92,30.20,14.33,48.17,1009.72,2032.00,3267.82,2953.78,3379.03,599.84,589.48,16.61,0000 0000 0000 0000 000000
2017-05-01 08:48:16,0.04,0.54,0.00,24.30,26.92,30.19,14.34,48.31,1009.77,2032.00,3266.97,2953.05,3378.47,600.18,589.54,16.66,0000 0000 0000 0000 000000
2017-05-01 08:53:17,0.03,0.54,0.00,24.30,26.92,30.19,14.29,48.23,1009.78,2032.00,3266.09,2952.73,3377.93,600.09,589.55,16.71,0000 0000 0000 0000 000000
2017-05-01 08:58:18,0.04,0.54,0.00,24.28,26.92,30.19,14.28,48.15,1009.78,2032.00,3265.29,2952.04,3377.12,600.27,589.93,16.76,0000 0000 0000 0000 000000
2017-05-01 09:03:19,0.04,0.54,0.00,24.26,26.92,30.19,14.29,48.30,1009.78,2032.00,3264.44,2951.63,3376.56,599.96,589.47,16.81,0000 0000 0000 0000 000000
2017-05-01 09:08:20,0.02,0.54,0.00,24.34,26.93,30.20,14.24,48.15,1009.78,2032.00,3263.73,2951.02,3376.01,600.02,589.39,16.86,0000 0000 0000 0000 000000
2017-05-01 09:13:22,0.04,0.54,0.00,24.31,26.93,30.21,14.32,48.27,1009.80,2032.00,3262.99,2950.66,3375.37,600.23,589.65,16.91,0000 0000 0000 0000 000000
2017-05-01 09:18:23,0.03,0.55,0.00,24.30,26.93,30.20,14.34,48.29,1009.79,2032.00,3262.12,2950.01,3374.81,600.15,589.52,16.96,0000 0000 0000 0000 000000
2017-05-01 09:23:25,0.04,0.55,0.00,24.30,26.93,30.19,14.23,48.23,1009.82,2032.00,3261.34,2949.64,3374.04,599.62,589.14,17.01,0000 0000 0000 0000 000000
2017-05-01 09:28:26,0.03,0.55,0.00,24.28,26.93,30.18,14.39,48.30,1009.81,2032.00,3260.58,2949.02,3373.49,600.40,589.87,17.06,0000 0000 0000 0000 000000
2017-05-01 09:33:27,0.03,0.55,0.00,24.21,26.93,30.16,14.26,48.29,1009.81,2032.00,3259.79,2948.60,3372.94,600.02,589.68,17.11,0000 0000 0000 0000 000000
2017-05-01 09:38:29,0.03,0.55,0.00,24.27,26.92,30.18,14.28,48.17,1009.86,2032.00,3259.01,2948.02,3372.14,599.90,589.39,17.16,0000 0000 0000 0000 000000
2017-05-01 09:43:30,0.04,0.55,0.00,24.32,26.93,30.19,14.26,48.22,1010.05,2032.00,3258.15,2947.61,3371.67,600.01,589.55,17.21,0000 0000 0000 0000 000000
2017-05-01 09:48:32,0.02,0.56,0.00,24.28,26.93,30.17,14.29,48.24,1010.15,2032.00,3257.33,2947.02,3371.02,599.68,589.35,17.26,0000 0000 0000 0000 000000
2017-05-01 09:53:33,0.04,0.56,0.00,24.29,26.93,30.16,14.25,48.13,1010.13,2032.00,3256.60,2946.63,3370.34,600.00,589.69,17.31,0000 0000 0000 0000 000000
2017-05-01 09:58:35,0.02,0.56,0.00,24.22,26.92,30.16,14.25,48.23,1010.17,2032.00,3255.87,2946.03,3369.90,599.55,589.47,17.36,0000 0000 0000 0000 000000
2017-05-01 10:03:36,0.03,0.56,0.00,24.29,26.92,30.17,14.26,48.25,1010.26,2032.00,3255.06,2945.77,3369.11,599.79,589.53,17.41,0000 0000 0000 0000 000000
2017-05-01 10:08:37,0.04,0.56,0.00,24.31,26.92,30.17,14.35,48.25,1010.27,2032.00,3254.23,2945.05,3368.67,600.16,589.86,17.46,0000 0000 0000 0000 000000
2017-05-01 10:13:38,0.02,0.57,0.00,24.29,26.92,30.17,14.26,48.36,1010.27,2032.00,3253.49,2944.77,3368.02,599.99,589.88,17.51,0000 0000 0000 0000 000000
2017-05-01 10:18:40,0.03,0.57,0.00,24.26,26.92,30.15,14.37,48.24,1010.27,2032.00,3252.77,2944.07,3367.51,600.03,589.81,17.56,0000 0000 0000 0000 000000
2017-05-01 10:23:41,0.01,0.57,0.00,24.23,26.92,30.15,14.31,48.30,1010.27,2032.00,3251.95,2943.97,3366.95,600.09,589.95,17.61,0000 0000 0000 0000 000000
2017-05-01 10:28:42,0.05,0.57,0.00,24.23,26.92,30.15,14.34,48.31,1010.27,2032.00,3251.09,2943.18,3366.13,599.98,589.84,17.66,0000 0000 0000 0000 000000
2017-05-01 10:33:43,0.02,0.57,0.00,24.26,26.92,30.15,14.19,48.22,1010.27,2032.00,3250.22,2942.97,3365.69,599.50,589.34,17.71,0000 0000 0000 0000 000000
2017-05-01 10:38:44,0.04,0.58,0.00,24.28,26.92,30.15,14.26,48.32,1010.27,2032.00,3249.48,2942.24,3365.03,599.91,589.71,17.76,0000 0000 0000 0000 000000
2017-05-01 10:43:46,0.02,0.58,0.00,24.28,26.92,30.14,14.25,48.27,1010.28,2032.00,3248.77,2941.97,3364.36,599.88,589.64,17.81,0000 0000 0000 0000 000000
2017-05-01 10:48:47,0.03,0.58,0.00,24.26,26.92,30.16,14.32,48.17,1010.28,2032.00,3248.03,2941.34,3363.97,600.15,589.95,17.86,0000 0000 0000 0000 000000
2017-05-01 10:53:48,0.03,0.58,0.00,24.24,26.91,30.16,14.28,48.31,1010.28,2032.00,3247.21,2940.98,3363.17,599.96,589.88,17.91,0000 0000 0000 0000 000000
2017-05-01 10:58:49,0.05,0.58,0.00,24.28,26.90,30.15,14.30,48.33,1010.30,2032.00,3246.27,2940.25,3362.49,599.87,589.61,17.96,0000 0000 0000 0000 000000
2017-05-01 11:03:50,0.01,0.58,0.00,24.32,26.90,30.15,14.21,48.12,1010.38,2032.00,3245.62,2940.00,3361.99,599.63,589.38,18.01,0000 0000 0000 0000 000000
2017-05-01 11:08:52,0.04,0.59,0.00,24.26,26.90,30.14,14.28,48.17,1010.63,2032.00,3244.76,2939.44,3361.30,599.70,589.79,18.06,0000 0000 0000 0000 000000
2017-05-01 11:13:53,0.01,0.59,0.00,24.26,26.90,30.14,14.27,48.31,1010.68,2032.00,3243.99,2938.99,3360.86,599.79,589.93,18.11,0000 0000 0000 0000 000000
2017-05-01 11:18:55,0.04,0.59,0.00,24.30,26.90,30.14,14.31,48.28,1010.74,2032.00,3243.16,2938.43,3360.09,600.23,590.22,18.16,0000 0000 0000 0000 000000
2017-05-01 11:23:56,0.03,0.59,0.00,24.29,26.90,30.14,14.37,48.23,1010.74,2032.00,3242.46,2938.01,3359.57,600.40,590.38,18.21,0000 0000 0000 0000 000000
2017-05-01 11:28:57,0.03,0.59,0.00,24.26,26.90,30.14,14.26,48.23,1010.76,2032.00,3241.66,2937.56,3358.99,599.91,590.08,18.26,0000 0000 0000 0000 000000
2017-05-01 11:33:59,0.03,0.60,0.00,24.18,26.90,30.12,14.39,48.29,1010.76,2032.00,3240.88,2937.02,3358.26,600.39,590.60,18.31,0000 0000 0000 0000 000000
2017-05-01 11:39:00,0.03,0.60,0.00,24.30,26.89,30.13,14.34,48.17,1010.76,2032.00,3240.05,2936.66,3357.88,600.10,590.10,18.36,0000 0000 0000 0000 000000
2017-05-01 11:44:01,0.04,0.60,0.00,24.28,26.88,30.13,14.23,48.27,1010.76,2032.00,3239.34,2936.03,3357.11,599.97,590.03,18.41,0000 0000 0000 0000 000000
2017-05-01 11:49:03,0.01,0.60,0.00,24.34,26.87,30.14,14.27,48.16,1010.76,2032.00,3238.71,2935.92,3356.81,600.03,589.94,18.46,0000 0000 0000 0000 000000
2017-05-01 11:54:05,0.04,0.60,0.00,24.28,26.87,30.13,14.27,48.23,1010.78,2032.00,3237.88,2935.17,3356.04,599.78,589.88,18.51,0000 0000 0000 0000 000000
2017-05-01 11:59:06,0.02,0.60,0.00,24.26,26.87,30.13,14.33,48.27,1010.77,2032.01,3237.06,2934.99,3355.70,600.06,590.16,18.56,0000 0000 0000 0000 000000
2017-05-01 12:04:07,0.05,0.61,0.00,24.26,26.87,30.13,14.29,48.24,1010.77,2032.01,3236.35,2934.30,3355.03,600.15,590.23,18.61,0000 0000 0000 0000 000000
2017-05-01 12:09:08,0.03,0.61,0.00,24.25,26.87,30.14,14.26,48.21,1010.81,2032.00,3235.54,2933.97,3354.24,599.77,589.94,18.66,0000 0000 0000 0000 000000
2017-05-01 12:14:09,0.03,0.61,0.00,24.27,26.87,30.14,14.27,48.22,1010.82,2032.01,3234.82,2933.31,3353.91,599.91,589.98,18.71,0000 0000 0000 0000 000000
2017-05-01 12:19:11,0.03,0.61,0.00,24.20,26.86,30.14,14.37,48.29,1010.83,2032.01,3234.03,2933.00,3353.12,599.86,590.08,18.76,0000 0000 0000 0000 000000
2017-05-01 12:24:12,0.03,0.61,0.00,24.29,26.85,30.15,14.30,48.26,1010.84,2032.03,3233.31,2932.63,3352.92,599.78,589.88,18.81,0000 0000 0000 0000 000000
2017-05-01 12:29:13,0.03,0.61,0.00,24.30,26.85,30.13,14.32,48.33,1010.83,2032.03,3232.68,2932.05,3352.14,599.91,590.00,18.86,0000 0000 0000 0000 000000
2017-05-01 12:34:14,0.02,0.62,0.00,24.27,26.85,30.12,14.33,48.33,1010.81,2032.04,3231.98,2931.89,3351.83,599.75,589.93,18.91,0000 0000 0000 0000 000000
2017-05-01 12:39:15,0.04,0.62,0.00,24.29,26.85,30.13,14.31,48.39,1011.05,2032.03,3231.16,2931.10,3351.05,599.82,590.14,18.96,0000 0000 0000 0000 000000
2017-05-01 12:44:16,0.03,0.62,0.00,24.29,26.85,30.13,14.25,48.27,1010.98,2032.04,3230.51,2930.95,3350.64,599.75,589.96,19.01,0000 0000 0000 0000 000000
2017-05-01 12:49:17,0.03,0.62,0.00,24.33,26.85,30.13,14.38,48.41,1011.01,2032.03,3229.79,2930.18,3350.02,600.05,590.11,19.06,0000 0000 0000 0000 000000
2017-05-01 12:54:19,0.02,0.62,0.00,24.23,26.84,30.13,14.30,48.41,1011.02,2032.04,3228.99,2929.97,3349.47,600.04,590.27,19.11,0000 0000 0000 0000 000000